Location: Bletchingley
(51.2333°N, 0.1000°W)
Time: 13:00:30
(UTC+00:00)

CREW DRAGON DEMO-1 DEB - Pass Details

Date: 18 September 2020
Orbit: 361 x 363 km, 51.6° (Epoch: 25 October)

Event Time Altitude Azimuth Distance (km) Brightness Sun altitude
Rises 20:04:11 0° 279° (W) 2,200 8.1 -18.5°
Reaches altitude 10° 20:06:13 10° 279° (W) 1,353 6.7 -18.7°
Enters shadow 20:09:06 80° 275° (W) 375 2.7 -19.1°
